User: anonymous   Login
Location: Caribou
(46.8667°N, 68.0167°W)
Time: 05:07:08
(UTC-04:00)
Language:

SL-08 RB Rocket - Orbit

View from above orbital plane
View from above orbital plane
View from above satellite
View from above satellite

Ground track
Ground track

The orbit data is extracted from the following two-line orbital elements,

1 26387U 00033D   16146.16652455  .00000140  00000-0  32650-4 0  9999
2 26387  98.0188 213.2293 0027713 128.0433 261.9854 14.68149838850948
Epoch (UTC): 25 May 2016 03:59:47
Eccentricity: 0.0027713
inclination: 98.0188°
perigee height: 647 km
apogee height: 686 km
right ascension of ascending node: 213.2293°
argument of perigee: 128.0433°
revolutions per day: 14.68149838
mean anomaly at epoch: 261.9854°
orbit number at epoch: 85094

The dashed part of the orbit path shows where the satellite is in the earth's shadow,  

DLR